EHI
0 0 0 0 0 0 0 0 0 0 0 1 2 2 2 3 3 2 3 10 17 19 18 18 17 16 14 13 14 13 12 11 11 9 5 4 2 1 0 1 3 3 3
0 0 0 0 0 0 0 0 0 0 0 0 1 1 1 2 2 1 3 7 14 17 17 18 18 17 16 15 14 14 12 12 11 9 7 4 3 1 0 1 2 3 3
0 0 0 0 0 0 0 0 0 0 0 1 2 1 0 1 2 2 2 4 8 11 14 16 17 17 17 15 14 13 12 12 11 10 8 6 4 1 0 1 1 3 3
0 0 0 0 0 0 0 0 0 0 1 2 3 2 1 1 2 2 2 3 4 6 8 11 14 16 16 14 12 12 12 12 10 9 7 6 5 3 1 0 1 2 3
1 1 0 0 0 0 0 0 0 0 1 2 3 2 1 0 1 2 2 3 3 4 5 7 10 14 16 15 14 14 15 14 12 9 8 6 4 3 2 1 1 1 2
2 2 1 0 0 0 0 0 0 0 0 1 2 2 1 0 0 1 1 2 3 4 4 5 6 10 14 17 19 19 18 17 15 12 9 6 4 3 3 3 2 1 1
3 2 1 0 0 1 0 0 0 0 0 0 1 1 0 0 0 0 0 1 1 3 5 5 5 6 9 14 18 19 19 19 17 15 11 7 4 3 3 3 3 1 0
4 3 1 0 0 1 0 0 0 0 0 0 0 0 0 0 0 0 0 0 0 1 3 5 6 5 5 7 9 13 17 18 17 16 12 7 4 3 3 3 3 2 1
4 5 4 2 2 2 1 0 0 0 0 0 0 0 1 1 0 0 0 0 0 0 1 3 5 5 4 3 3 7 12 15 15 14 11 7 4 3 3 4 4 3 3
5 7 7 6 5 4 3 1 1 1 1 1 1 1 1 1 1 0 0 0 0 0 0 1 4 5 4 3 3 5 8 11 11 11 9 7 5 4 4 3 4 3 3
7 8 9 8 6 4 3 3 2 2 2 2 2 2 2 1 1 1 1 0 0 0 0 1 2 3 4 4 5 6 7 9 9 8 7 6 5 6 6 5 4 3 3
7 8 8 7 6 4 3 3 3 3 3 3 3 3 3 2 3 2 1 1 1 1 0 0 1 2 4 6 7 7 8 8 7 5 4 3 4 7 10 8 5 4 3
8 8 7 7 6 5 4 3 3 3 3 3 3 3 4 4 3 3 3 2 2 2 1 1 2 3 4 5 7 7 7 5 3 2 1 1 2 4 7 7 6 4 3
8 8 7 6 6 5 5 4 3 3 3 3 4 4 4 4 4 3 3 3 2 2 2 2 3 3 2 3 4 5 5 2 0 0 0 0 0 1 2 3 3 3 2
8 7 7 6 6 5 5 5 4 4 3 4 4 4 4 4 3 3 3 3 2 2 2 3 3 3 1 1 2 3 3 1 0 0 0 0 0 0 0 0 1 1 1
9 8 8 8 7 6 6 8 8 6 4 4 4 3 3 3 3 3 3 3 3 3 3 3 3 2 1 0 1 2 3 2 0 0 0 0 0 0 0 0 0 0 0
12 11 10 9 9 8 8 10 11 9 7 5 4 3 3 3 3 3 3 3 4 5 4 3 3 2 1 0 0 1 2 1 0 0 0 0 0 0 0 0 0 0 0
14 14 12 11 11 12 12 13 13 11 10 8 5 4 4 4 4 4 4 4 5 6 5 4 3 1 0 0 0 0 0 0 0 0 0 0 0 0 0 0 0 0 0
16 15 14 13 13 15 16 17 15 12 11 10 8 7 7 5 5 5 5 5 6 6 5 3 2 1 0 0 0 0 0 0 0 0 0 0 0 0 0 0 0 0 0
14 14 13 13 14 15 16 18 17 13 10 8 10 10 9 7 5 5 5 5 6 6 5 2 1 0 0 1 1 1 0 0 0 0 0 0 0 0 0 0 0 0 0
10 10 10 10 11 12 13 15 16 12 8 6 8 9 8 6 5 4 4 4 4 4 4 2 1 0 0 1 1 1 0 0 0 0 0 0 0 0 0 0 0 0 0
8 8 7 7 8 8 8 9 11 10 7 6 5 6 5 5 4 4 3 3 3 3 3 3 2 1 0 1 2 2 1 0 0 0 0 0 0 0 0 0 0 0 0
11 9 8 7 7 6 5 4 5 6 6 6 6 5 4 4 4 4 4 3 3 3 4 5 4 3 2 2 3 2 1 1 0 0 0 0 0 0 0 0 0 0 0
15 14 12 10 9 7 3 1 2 4 5 6 6 5 4 4 4 4 5 4 3 4 5 5 5 4 3 2 3 3 3 2 1 0 0 0 0 0 0 0 0 0 0
16 16 14 13 12 8 4 1 2 4 5 5 7 6 4 4 4 3 4 4 4 3 4 5 4 3 1 1 1 3 3 2 1 0 0 0 0 0 0 0 0 0 0
16 15 14 14 12 9 5 2 2 4 6 6 6 5 4 4 3 2 3 4 4 3 4 5 4 2 0 0 1 2 3 2 1 0 0 0 0 0 0 0 0 0 0
Wind_Speed
2 2 2 2 2 1 2 2 2 2 2 2 2 3 3 4 4 4 3 10 11 11 10 10 10 9 9 8 8 8 8 8 8 7 7 8 8 8 8 8 8 7 8
2 2 1 1 2 2 2 2 2 2 1 1 1 2 2 3 4 4 3 6 10 11 11 11 10 10 9 9 9 9 9 8 8 8 8 8 8 8 8 8 8 8 8
3 3 2 1 1 1 1 1 1 1 1 1 0 1 1 2 3 4 4 3 4 8 11 11 10 10 10 10 10 10 9 9 8 8 9 9 8 8 8 8 8 8 8
3 2 2 1 1 1 1 1 1 1 0 0 0 1 1 1 2 3 3 3 3 4 7 10 11 10 9 10 10 10 9 9 9 9 9 9 9 9 9 8 9 8 8
3 2 2 1 1 1 0 1 1 1 1 0 1 1 1 1 2 2 2 3 4 4 3 6 9 9 10 10 10 10 10 9 9 9 9 9 9 9 9 9 9 8 8
2 2 2 1 1 1 0 0 1 0 1 1 0 0 1 1 1 2 3 3 3 4 4 4 4 5 9 9 10 11 11 11 10 10 10 10 10 10 9 8 9 9 9
2 2 2 1 1 1 1 1 1 1 1 1 1 2 2 1 1 1 1 2 2 3 3 3 2 3 3 8 10 10 11 11 11 11 11 11 11 11 10 10 9 9 9
3 3 3 2 2 1 1 1 1 1 1 1 2 1 2 3 2 1 1 2 2 2 2 4 3 4 3 3 5 10 11 11 11 11 11 11 11 11 10 10 10 9 9
4 3 3 3 2 2 2 2 2 2 1 1 2 3 2 2 2 2 1 0 0 1 1 1 3 3 4 3 4 7 10 10 10 10 10 9 9 9 9 10 10 10 10
3 4 3 3 3 2 2 2 2 2 2 1 1 1 2 3 2 1 2 1 1 1 1 2 2 2 3 2 4 5 8 9 9 10 10 9 9 8 8 8 8 9 9
3 4 4 3 3 3 3 3 2 2 2 2 2 1 1 1 2 2 2 2 2 1 1 1 1 2 2 2 2 4 6 7 7 8 8 8 9 8 8 8 9 9 9
2 3 4 4 4 3 4 4 3 3 3 3 2 2 2 2 2 2 2 2 2 2 2 1 1 1 1 2 4 5 5 6 6 7 7 7 8 8 8 8 8 8 8
3 4 4 4 4 4 4 4 3 3 3 3 3 3 2 3 2 3 2 2 2 2 1 1 2 2 2 2 3 5 6 6 6 6 7 7 8 8 8 8 8 7 7
4 4 4 4 5 5 5 4 3 3 3 3 3 3 2 2 3 3 3 3 1 2 2 3 2 2 2 2 3 5 3 6 7 6 6 5 6 7 7 6 6 6 6
3 4 4 4 4 4 4 3 3 3 3 3 3 3 2 2 2 3 3 4 4 2 3 3 2 2 2 2 3 3 3 5 6 6 6 6 6 6 6 6 5 5 5
4 3 3 4 4 4 4 4 3 3 3 3 3 3 3 2 2 2 3 3 3 4 3 3 3 2 2 3 3 3 3 5 5 6 7 7 7 6 6 6 6 6 6
4 4 4 4 4 4 4 3 4 4 4 4 3 3 4 3 2 2 2 2 2 3 3 3 2 1 2 2 2 2 2 2 3 5 6 7 7 6 6 6 6 6 6
4 5 4 4 4 4 4 4 5 4 4 5 4 4 4 3 3 3 2 3 3 3 3 3 2 1 2 2 2 2 2 2 2 5 6 6 6 6 6 6 6 6 6
5 4 4 4 4 4 4 4 5 4 4 5 4 4 4 3 4 3 3 3 3 3 3 3 3 1 1 1 1 1 1 1 2 3 4 5 5 5 5 5 5 5 6
4 4 4 4 4 4 4 4 4 4 4 4 4 4 4 4 5 4 4 4 3 3 2 2 2 1 1 1 1 0 1 1 1 1 1 1 3 4 5 5 5 5 5
4 4 3 3 3 4 4 3 4 4 3 3 3 3 4 4 5 4 3 3 3 3 2 2 2 1 1 1 2 1 1 1 2 1 1 1 1 1 2 4 6 6 6
3 3 3 3 3 3 3 4 3 3 4 3 3 3 3 3 4 5 5 5 5 5 4 3 2 3 3 3 2 2 2 1 2 2 1 2 1 2 2 3 4 5 6
3 2 3 2 3 4 4 3 3 2 3 3 4 3 3 3 3 3 4 4 4 5 6 5 4 4 4 4 3 3 3 3 3 3 2 2 1 2 3 3 5 5 5
2 2 2 3 2 3 3 3 2 2 2 2 3 3 3 3 2 2 2 1 2 3 5 5 5 5 4 4 5 5 4 2 1 1 2 2 2 2 3 2 4 5 5
2 2 2 3 3 3 2 3 2 1 1 2 2 2 3 3 2 2 2 1 1 3 3 4 4 4 4 4 3 2 2 2 1 2 1 2 1 1 1 2 3 4 5
2 2 2 2 3 3 2 2 3 2 2 2 2 2 2 3 3 3 3 2 2 3 1 1 1 2 2 3 4 5 5 4 2 2 2 2 1 1 1 2 1 1 2
Wind_Direction
164 170 184 185 196 202 207 218 225 233 239 236 222 206 193 190 186 186 189 194 195 193 194 195 195 197 199 200 201 200 200 200 200 200 202 196 194 194 196 199 202 203 204
159 158 166 177 197 202 202 197 210 223 228 216 217 200 190 177 182 186 190 199 199 197 199 201 201 204 206 206 206 206 208 208 208 206 206 202 198 200 202 204 205 207 207
157 157 161 178 205 200 179 169 206 209 207 197 220 221 193 186 185 186 187 193 199 203 207 209 208 210 211 211 212 212 212 214 214 212 210 205 201 203 202 204 209 209 208
153 151 155 190 204 151 138 156 152 126 181 151 287 295 243 212 191 193 190 187 190 203 211 212 213 214 215 215 216 217 219 220 218 213 208 205 205 205 204 205 209 209 208
153 151 162 184 173 123 157 202 146 150 165 215 239 260 256 218 223 207 190 190 200 203 208 215 214 215 218 219 218 217 219 221 215 211 209 206 207 209 207 208 210 211 212
159 150 157 170 139 128 136 136 161 146 173 195 248 335 280 240 227 218 206 197 204 207 207 214 215 223 222 223 220 217 217 216 213 214 213 212 212 213 212 212 213 215 216
168 160 166 164 154 161 187 178 157 156 227 122 62 356 339 322 273 234 193 180 205 217 209 208 209 212 225 225 226 225 223 219 218 216 216 217 219 217 215 217 219 217 216
184 180 172 183 181 168 184 184 147 157 249 148 132 92 345 342 339 296 202 183 204 214 217 216 213 216 226 226 225 225 224 223 220 219 218 220 222 221 217 218 220 219 220
195 190 180 183 191 180 196 209 191 185 220 255 173 155 165 234 304 321 305 262 186 200 223 219 211 215 221 224 222 222 220 222 219 219 219 218 217 215 214 219 222 223 223
205 198 188 191 192 191 200 222 211 196 181 217 260 208 187 172 169 298 321 316 270 227 219 218 213 218 222 220 216 207 212 215 218 221 222 218 217 217 215 221 225 226 226
220 210 205 204 201 200 206 212 203 204 192 191 203 207 199 170 161 167 263 301 318 287 239 215 207 218 220 213 215 206 200 206 213 222 226 223 220 216 216 223 229 232 233
230 227 217 211 210 209 210 211 208 208 213 204 203 195 183 179 190 174 206 244 269 282 276 239 220 217 219 216 218 205 205 211 215 220 222 221 217 219 222 226 230 234 238
226 230 227 214 213 217 215 210 211 219 215 212 211 212 206 206 185 171 176 222 259 280 291 277 238 219 217 211 217 203 209 212 214 217 216 216 218 223 225 226 228 233 238
225 224 224 220 219 218 222 213 213 216 215 219 223 214 211 221 189 178 177 176 233 293 285 263 269 235 229 221 231 212 209 211 214 218 217 218 219 221 223 224 229 234 237
226 224 225 224 226 222 219 208 216 221 215 218 222 217 219 227 207 200 184 173 174 224 264 253 246 251 237 226 228 216 212 216 214 215 214 217 219 218 217 218 223 228 232
227 224 227 227 227 226 224 214 221 221 214 225 219 216 227 229 221 209 194 194 184 188 231 249 237 239 238 234 224 213 220 213 217 216 213 213 216 219 218 218 221 224 227
226 227 225 226 226 225 228 224 228 223 222 234 231 218 230 231 227 221 205 199 199 184 215 265 258 241 216 222 237 235 229 220 228 222 216 215 216 218 221 221 220 220 222
232 230 226 222 225 228 224 222 231 228 226 234 235 228 234 231 230 226 211 212 215 203 194 235 264 245 227 212 207 222 236 229 225 224 222 217 214 218 223 222 220 223 225
238 234 222 224 230 233 228 225 225 225 227 234 230 225 232 221 228 225 212 214 220 219 200 205 241 241 247 214 158 246 238 267 234 223 220 220 218 218 223 223 218 219 223
237 236 230 227 223 228 231 228 222 219 225 237 231 227 227 218 226 224 221 216 214 215 213 206 220 236 252 248 143 215 308 309 266 254 244 228 221 216 224 226 222 221 217
240 235 230 236 230 227 232 224 220 219 217 231 240 238 230 216 220 221 220 211 203 205 204 206 218 223 244 227 223 214 221 278 287 247 237 268 250 249 241 236 225 218 212
245 238 236 237 241 247 250 229 216 219 216 216 228 242 244 240 232 229 224 207 192 193 197 201 217 216 232 229 216 205 186 192 269 250 178 260 217 242 249 236 224 213 208
237 241 245 237 240 243 241 231 220 209 217 219 220 225 245 256 238 235 225 210 211 213 202 200 206 220 219 219 201 205 195 196 223 224 167 251 252 250 250 245 226 209 206
230 232 242 240 241 256 246 228 218 206 226 231 219 211 211 234 237 204 195 198 229 231 219 208 207 218 220 213 200 197 197 197 260 251 164 207 243 245 252 248 225 207 212
233 232 237 235 236 258 254 220 200 197 232 251 244 225 209 211 222 182 164 188 257 277 258 232 221 228 227 213 190 150 152 155 236 260 209 181 227 248 261 257 246 223 219
226 229 248 247 237 243 251 220 181 176 220 251 259 248 220 203 200 175 171 185 230 262 280 321 300 295 247 221 195 180 180 180 189 234 229 174 198 151 288 280 256 233 219